Date String (YYYY-MM-DD hh:mm:ss) UTC,Instrument flags,Ambient pressure (hPa),Sample flow (lpm),Bypass flow (lpm),Sample temperature (°C),Ambient temperature (°C),ASC tube jacket temperature (°C),LED temperature (°C),Box temperature (°C),Sample RH (%),Span deviation,Mass concentration (μg/m³),Mass concentration (μg/m³),Mass concentration (μg/m³)
DateTimeUTC,F1_M11,P_M11,Q1_M11,Q2_M11,T1_M11,T2_M11,T3_M11,T4_M11,T5_M11,U1_M11,ZSPAN_M11,X0_M11,X2_M11,X1_M11
2021-11-07 21:00:00,,0823.2,5.01,0.00,29.6,26.1,00.0,38.6,31.0,05.7,0000.0,0002.31,0000.82,0000.56
2021-11-07 21:01:00,,0823.3,4.99,0.00,29.5,26.6,00.0,38.6,31.0,05.8,0000.0,0002.14,0000.83,0000.56
2021-11-07 21:02:00,,0823.3,4.99,0.00,29.5,27.0,00.0,38.5,31.1,05.8,0000.0,0002.02,0000.81,0000.56
2021-11-07 21:03:00,,0823.3,5.01,0.00,29.5,27.4,00.0,38.5,31.1,05.9,0000.0,0002.25,0000.84,0000.56
2021-11-07 21:04:00,,0823.2,5.00,0.00,29.5,27.8,00.0,38.5,31.2,06.0,0000.0,0002.34,0000.86,0000.56
2021-11-07 21:05:00,,0823.2,4.99,0.00,29.5,28.1,00.0,38.5,31.3,06.0,0000.0,0002.27,0000.84,0000.56
2021-11-07 21:06:00,,0823.2,5.02,0.00,29.6,28.3,00.0,38.5,31.4,06.0,0000.0,0002.14,0000.84,0000.57
2021-11-07 21:07:00,,0823.2,5.01,0.00,29.6,28.5,00.0,38.5,31.4,05.9,0000.0,0002.04,0000.81,0000.57
2021-11-07 21:08:00,,0823.2,4.99,0.00,29.6,28.6,00.0,38.5,31.5,05.9,0000.0,0001.75,0000.78,0000.56
2021-11-07 21:09:00,,0823.2,4.99,0.00,29.7,28.7,00.0,38.6,31.5,05.8,0000.0,0001.62,0000.80,0000.56
2021-11-07 21:10:00,,0823.3,5.00,0.00,29.7,28.8,00.0,38.6,31.6,05.8,0000.0,0001.81,0000.81,0000.56
2021-11-07 21:11:00,,0823.2,5.01,0.00,29.8,28.9,00.0,38.6,31.6,05.8,0000.0,0002.57,0000.81,0000.57
2021-11-07 21:12:00,,0823.3,5.00,0.00,29.8,29.0,00.0,38.6,31.7,05.8,0000.0,0002.81,0000.83,0000.58
2021-11-07 21:13:00,,0823.2,5.00,0.00,29.8,27.8,00.0,38.6,31.4,05.8,0000.0,0002.84,0000.82,0000.58
2021-11-07 21:14:00,,0823.2,4.99,0.00,29.7,25.9,00.0,38.6,31.0,06.0,0000.0,0002.58,0000.80,0000.58
2021-11-07 21:15:00,,0823.1,5.01,0.00,29.6,25.8,00.0,38.6,31.0,05.9,0000.0,0002.60,0000.83,0000.59
2021-11-07 21:16:00,,0823.1,5.00,0.00,29.5,26.2,00.0,38.5,31.0,05.9,0000.0,0002.62,0000.83,0000.59
2021-11-07 21:17:00,,0823.1,5.00,0.00,29.4,26.7,00.0,38.5,31.0,05.9,0000.0,0002.59,0000.82,0000.58
2021-11-07 21:18:00,,0823.0,5.00,0.00,29.4,27.1,00.0,38.5,31.1,05.9,0000.0,0002.66,0000.84,0000.58
2021-11-07 21:19:00,,0823.2,5.00,0.00,29.4,27.5,00.0,38.5,31.1,05.9,0000.0,0003.76,0000.87,0000.59
2021-11-07 21:20:00,,0823.0,4.99,0.00,29.5,27.8,00.0,38.5,31.2,06.0,0000.0,0004.51,0000.86,0000.60
2021-11-07 21:21:00,,0823.0,5.01,0.00,29.5,28.0,00.0,38.5,31.3,06.1,0000.0,0004.35,0000.87,0000.60
2021-11-07 21:22:00,,0823.0,4.99,0.00,29.5,28.3,00.0,38.5,31.3,06.0,0000.0,0003.48,0000.84,0000.59
2021-11-07 21:23:00,,0823.0,5.00,0.00,29.6,28.4,00.0,38.5,31.4,06.0,0000.0,0003.21,0000.83,0000.58
2021-11-07 21:24:00,,0823.0,5.00,0.00,29.6,28.6,00.0,38.5,31.4,06.1,0000.0,0003.27,0000.88,0000.59
2021-11-07 21:25:00,,0823.0,5.01,0.00,29.6,28.7,00.0,38.5,31.5,06.2,0000.0,0003.34,0000.92,0000.59
2021-11-07 21:26:00,,0823.0,4.99,0.00,29.7,28.8,00.0,38.5,31.5,06.1,0000.0,0003.33,0000.91,0000.59
2021-11-07 21:27:00,,0823.0,5.00,0.00,29.7,28.9,00.0,38.6,31.6,06.2,0000.0,0003.40,0000.91,0000.59
2021-11-07 21:28:00,,0823.0,4.99,0.00,29.8,29.0,00.0,38.6,31.7,06.2,0000.0,0003.98,0000.91,0000.59
2021-11-07 21:29:00,,0823.1,5.01,0.00,29.8,28.7,00.0,38.6,31.6,06.2,0000.0,0004.08,0000.94,0000.59
2021-11-07 21:30:00,,0823.0,5.00,0.00,29.8,26.8,00.0,38.6,31.2,06.1,0000.0,0003.12,0000.94,0000.59
2021-11-07 21:31:00,,0823.1,5.00,0.00,29.6,25.7,00.0,38.6,31.0,06.1,0000.0,0002.32,0000.92,0000.59
2021-11-07 21:32:00,,0823.0,4.99,0.00,29.5,26.0,00.0,38.6,31.0,06.1,0000.0,0002.27,0000.91,0000.59
2021-11-07 21:33:00,,0823.0,5.01,0.00,29.5,26.4,00.0,38.5,31.0,06.1,0000.0,0002.30,0000.92,0000.60
2021-11-07 21:34:00,,0823.0,4.99,0.00,29.4,26.9,00.0,38.5,31.0,06.1,0000.0,0002.29,0000.92,0000.60
2021-11-07 21:35:00,,0822.9,5.00,0.00,29.4,27.3,00.0,38.4,31.1,06.1,0000.0,0002.24,0000.89,0000.60
2021-11-07 21:36:00,,0823.1,4.99,0.00,29.4,27.7,00.0,38.4,31.1,06.0,0000.0,0002.25,0000.87,0000.60
2021-11-07 21:37:00,,0823.1,5.00,0.00,29.5,28.0,00.0,38.4,31.2,06.0,0000.0,0002.37,0000.88,0000.60
2021-11-07 21:38:00,,0823.1,4.99,0.00,29.5,28.2,00.0,38.5,31.3,06.1,0000.0,0002.37,0000.92,0000.61
2021-11-07 21:39:00,,0823.1,5.00,0.00,29.5,28.4,00.0,38.5,31.3,06.0,0000.0,0001.93,0000.94,0000.62
2021-11-07 21:40:00,,0823.2,5.00,0.00,29.6,28.5,00.0,38.5,31.4,06.1,0000.0,0001.69,0000.91,0000.63
2021-11-07 21:41:00,,0823.2,5.00,0.00,29.6,28.6,00.0,38.5,31.5,06.1,0000.0,0001.59,0000.88,0000.64
2021-11-07 21:42:00,,0823.1,5.01,0.00,29.7,28.8,00.0,38.5,31.5,06.0,0000.0,0001.59,0000.91,0000.65
2021-11-07 21:43:00,,0823.1,5.00,0.00,29.7,28.9,00.0,38.5,31.6,05.9,0000.0,0001.59,0000.90,0000.65
2021-11-07 21:44:00,,0823.2,4.99,0.00,29.8,28.9,00.0,38.6,31.6,05.9,0000.0,0001.69,0000.92,0000.65
2021-11-07 21:45:00,,0823.2,5.00,0.00,29.8,28.6,00.0,38.6,31.6,06.0,0000.0,0001.69,0000.93,0000.66
2021-11-07 21:46:00,,0823.3,5.00,0.00,29.7,26.6,00.0,38.6,31.2,06.1,0000.0,0001.64,0000.91,0000.66
2021-11-07 21:47:00,,0823.2,5.00,0.00,29.6,25.6,00.0,38.6,30.9,06.1,0000.0,0001.59,0000.92,0000.66
2021-11-07 21:48:00,,0823.2,5.01,0.00,29.5,25.9,00.0,38.5,30.9,06.1,0000.0,0001.39,0000.89,0000.67
2021-11-07 21:49:00,,0823.3,5.00,0.00,29.4,26.3,00.0,38.5,30.9,06.2,0000.0,0001.36,0000.88,0000.67
2021-11-07 21:50:00,,0823.3,4.99,0.00,29.4,26.8,00.0,38.4,30.9,06.3,0000.0,0001.40,0000.88,0000.67
2021-11-07 21:51:00,,0823.4,5.01,0.00,29.4,27.2,00.0,38.4,31.0,06.3,0000.0,0001.42,0000.88,0000.66
2021-11-07 21:52:00,,0823.3,5.01,0.00,29.4,27.6,00.0,38.4,31.1,06.4,0000.0,0001.51,0000.91,0000.66
2021-11-07 21:53:00,,0823.4,5.00,0.00,29.4,27.9,00.0,38.4,31.2,06.4,0000.0,0001.46,0000.89,0000.66
2021-11-07 21:54:00,,0823.3,5.00,0.00,29.5,28.2,00.0,38.4,31.3,06.4,0000.0,0001.46,0000.91,0000.67
2021-11-07 21:55:00,,0823.4,5.00,0.00,29.5,28.4,00.0,38.4,31.3,06.3,0000.0,0001.37,0000.92,0000.68
2021-11-07 21:56:00,,0823.3,5.01,0.00,29.5,28.5,00.0,38.4,31.4,06.2,0000.0,0001.36,0000.93,0000.70
2021-11-07 21:57:00,,0823.3,5.01,0.00,29.6,28.6,00.0,38.5,31.4,06.1,0000.0,0001.44,0000.97,0000.72
2021-11-07 21:58:00,,0823.4,4.99,0.00,29.6,28.8,00.0,38.5,31.5,06.1,0000.0,0002.02,0001.00,0000.77
2021-11-07 21:59:00,,0823.4,4.99,0.00,29.7,28.9,00.0,38.5,31.6,06.2,0000.0,0002.40,0001.05,0000.81
